Location: Borderline Observatory
(42.7345°N, 72.8696°W)
Time: 04:48:33
(UTC-04:00)

Daily predictions for brighter satellites

Satellite Brightness Start Highest point End
(mag) Time Altitude Azimuth Time Altitude Azimuth Time Altitude Azimuth
ATLAS 2AS CENTAUR R/B 4.2 02:12:51 36° ENE 02:12:51 36° ENE 02:17:35 10° NE
Cosmos 2219 Rocket 4.3 02:58:00 10° N 03:02:26 23° NE 03:06:51 10° ESE
CZ-2D R/B 3.8 03:06:32 10° NNE 03:09:27 29° NE 03:09:27 29° NE
SL-16 R/B 3.5 03:17:52 41° N 03:17:52 41° N 03:21:49 10° N
ARIANE 5 R/B 4.2 03:17:35 10° NNE 03:20:07 29° NNE 03:20:07 29° NNE
Lacrosse 5 rocket 3.9 03:25:43 22° ENE 03:25:43 22° ENE 03:27:21 10° NE
Cosmos 2333 Rocket 3.9 03:29:52 10° N 03:34:54 30° NE 03:39:52 10° ESE
CZ-4C R/B 2.8 03:32:46 10° NW 03:40:28 79° SE 03:47:47 10° SE
Cosmos 1821 Rocket 4.3 03:34:06 10° N 03:40:27 66° E 03:41:04 62° ESE
Lacrosse 5 4.0 03:41:14 17° ESE 03:41:17 17° ESE 03:44:34 10° E
Resurs 1-4 Rocket 2.9 03:39:19 10° NNE 03:42:58 45° NNE 03:42:58 45° NNE
Cosmos 1934 Rocket 4.4 03:40:12 10° N 03:46:26 60° E 03:48:43 38° SE
Meteor 1-12 Rocket 4.4 03:46:30 10° N 03:52:15 74° NE 03:52:15 74° NE
ATLAS 2AS CENTAUR R/B 3.5 04:00:18 42° NW 04:01:04 43° NW 04:08:47 10° NNE
Cosmos 2237 Rocket 3.4 03:59:55 10° NNW 04:05:15 41° ENE 04:10:32 10° SE
MOZ.5/SAFIR/RUBIN 5/SL-8 4.1 04:10:38 65° E 04:10:51 66° ENE 04:15:35 10° N
CZ-2C R/B 4.5 04:08:41 22° SE 04:11:25 51° ENE 04:15:53 10° N
Gbstr 26 Del rocket 4.3 04:08:37 42° NW 04:11:29 88° NE 04:19:36 10° SE
Cosmos 2239 Rocket 4.4 04:08:45 10° NNW 04:14:32 64° WNW 04:14:32 64° WNW
Cosmos 968 Rocket 3.6 04:16:28 60° NNW 04:16:28 60° NNW 04:20:54 10° NNE
Okean O Rocket 2.2 04:12:02 10° NNE 04:16:22 54° E 04:16:41 52° ESE
Meteor 1-18 Rocket 4.2 04:16:35 71° WNW 04:16:35 71° WNW 04:22:20 10° N
Cosmos 2219 3.4 04:18:02 54° NW 04:18:02 54° NW 04:23:06 10° NNE
Cosmos 1980 4.3 04:12:54 10° NNW 04:18:31 56° ENE 04:24:05 10° SE
ATLAS 5 CENTAUR R/B 3.2 04:13:24 10° NNW 04:19:11 51° NE 04:25:25 10° ESE
MOS 1-B 4.2 04:15:03 10° N 04:20:49 74° WNW 04:21:22 69° WSW
Tiangong 1 3.9 04:22:44 14° ESE 04:22:44 14° ESE 04:23:26 10° E
Cosmos 923 Rocket 4.5 04:16:35 10° NNW 04:21:54 62° ENE 04:27:11 10° SSE
SL-16 R/B 4.2 04:18:15 10° N 04:23:04 27° NE 04:27:51 10° ESE
Cosmos 1025 Rocket 4.5 04:22:16 16° SSE 04:25:10 36° E 04:29:08 10° NNE
Cosmos 2344 3.6 04:26:23 44° SW 04:29:13 80° NW 04:38:07 10° NE
NOSS 3-2 (A) 4.0 04:22:36 10° NW 04:30:06 84° NE 04:38:12 10° SE
Cosmos 1461 4.0 04:31:20 35° NNW 04:31:20 35° NNW 04:34:30 10° NNE
USA 238 DEB 4.0 04:35:04 45° SW 04:35:04 45° SW 04:41:07 10° S
USA 238 3.9 04:34:56 45° SW 04:34:56 45° SW 04:41:13 10° S
BREEZE-M DEB (TANK) 3.7 04:36:06 44° S 04:36:57 51° SSE 04:39:45 10° ENE
Cosmos 1743 3.1 04:33:14 10° N 04:37:02 61° E 04:39:18 22° SSE
Cosmos 2227 Rocket 2.5 04:35:18 27° S 04:38:23 64° ESE 04:44:00 10° NNE
PSLV R/B 3.8 04:37:33 10° N 04:41:29 72° NW 04:41:29 72° NW
Okean 1-7 Rocket 3.4 04:41:51 71° SW 04:42:16 79° W 04:46:41 10° N
Cosmos 773 Rocket 3.9 04:39:35 10° NNW 04:44:46 63° WSW 04:49:52 10° S
ADEOS II 3.3 04:40:41 10° NNE 04:45:40 42° E 04:50:37 10° SSE
CZ-4B R/B 3.1 04:41:28 10° NNE 04:45:49 82° ESE 04:47:43 35° S
Cosmos 2219 Rocket 2.1 04:41:13 10° NNW 04:46:51 62° WSW 04:52:26 10° S
Cosmos 2297 Rocket 2.8 04:43:32 14° S 04:48:10 55° ESE 04:53:41 10° NNE
CZ-2D R/B 3.3 04:47:07 10° N 04:50:47 25° NW 04:50:47 25° NW
Meteor 2-8 Rocket 4.4 04:48:13 27° SSW 04:51:39 67° W 04:57:47 10° N
Cosmos 1727 Rocket 3.9 04:51:31 16° SSW 04:56:38 74° W 05:02:59 10° N
CZ-4B DEB 4.1 04:51:43 10° NNE 04:57:13 85° WNW 05:01:53 15° SSW
Cosmos 1777 Rocket 4.2 04:57:51 40° WSW 04:59:15 51° WNW 05:04:23 10° N
SL-16 R/B 4.3 05:02:59 13° NW 05:02:59 13° NW 05:04:05 10° NW
ARIANE 5 R/B 4.3 04:58:06 10° NNW 05:00:27 16° NW 05:00:27 16° NW
Okean 2 4.3 04:58:06 10° S 05:02:08 50° E 05:06:09 10° NNE
Lacrosse 5 rocket 2.8 05:01:27 26° NW 05:02:26 28° NNW 05:06:19 10° NNE
PAYLOAD B 4.1 04:57:57 10° N 05:03:25 67° WNW 05:07:22 19° SSW
PSLV R/B 3.8 04:59:36 10° NNE 05:03:58 70° E 05:08:15 10° S
ISS -0.7 05:07:45 11° S 05:07:45 11° S 05:07:59 10° S
Cosmos 2173 Rocket 4.3 05:00:07 10° N 05:06:13 69° E 05:12:18 10° SSE
Cosmos 220 Rocket 3.8 05:04:15 26° SSW 05:06:35 89° NW 05:10:50 10° NNE
NOSS 3-2 (C) 3.9 04:59:11 10° NW 05:06:42 75° WSW 05:14:46 10° SSE
CENTAUR R/B 4.0 05:04:40 10° NNW 05:12:06 48° NE 05:20:02 10° ESE
Meteor 1-31 Rocket 4.4 05:09:46 10° NNE 05:13:23 36° E 05:17:00 10° SSE
Cosmos 2112 Rocket 3.9 05:10:07 10° NNW 05:15:24 69° WSW 05:20:37 10° S
Okean-O 2.8 05:11:25 10° NNE 05:15:53 75° ESE 05:20:18 10° S
Cosmos 2082 3.6 05:12:43 19° SW 05:16:47 70° WNW 05:22:25 10° NNE
Cosmos 1459 Rocket 4.1 05:10:39 10° N 05:17:04 85° E 05:23:24 10° S
Cosmos 2333 Rocket 2.5 05:13:56 10° NW 05:19:19 43° WSW 05:24:37 10° S
ADEOS Rocket 3.3 05:12:01 10° N 05:19:21 76° WNW 05:25:56 10° SSW
Cosmos 1680 Rocket 3.6 05:15:34 10° NNW 05:20:42 53° WSW 05:25:47 10° S
Cosmos 2228 3.7 05:17:52 10° N 05:22:13 57° E 05:26:32 10° SSE
Meteor 1-19 Rocket 4.3 05:16:42 10° SSW 05:22:17 58° WNW 05:27:50 10° N
Lacrosse 5 1.8 05:20:27 23° SW 05:23:40 81° NW 05:28:46 10° NE
Resurs 1-4 Rocket 3.9 05:21:06 10° NNW 05:23:45 14° WNW 05:24:02 14° WNW
EXPRESS MD2 4.0 05:22:09 18° NW 05:24:26 53° NNE 05:30:10 10° ESE
CZ-4C R/B 3.9 05:26:04 19° W 05:27:54 21° WSW 05:33:20 10° SSW
Cosmos 2058 Rocket 2.9 05:24:34 10° N 05:28:57 85° W 05:33:19 10° S
NOSS 3-4 (A) 3.7 05:26:20 19° WSW 05:30:59 57° NW 05:37:29 10° NNE
NOSS 3-4 (C) 3.7 05:26:24 18° WSW 05:31:04 58° NW 05:37:35 10° NNE
OTV 4 1.9 05:33:36 19° SSW 05:34:00 20° SSW 05:36:07 10° SE
Cosmos 2298 Rocket 4.1 05:31:09 10° SSW 05:36:26 81° ESE 05:41:46 10° NNE
BREEZE-M DEB (TANK) 3.8 05:26:31 10° WNW 05:41:53 84° NNE 05:45:50 10° ESE
Thor Agena Rocket 4.1 05:37:39 10° SSW 05:42:32 38° W 05:47:28 10° NNW
CZ-4B R/B 3.9 05:38:15 10° N 05:42:59 33° WNW 05:47:47 10° SW
Meteor 1-23 Rocket 4.3 05:38:53 10° SSW 05:44:23 57° WNW 05:50:00 10° N
Aureole 2 Rocket 2.8 05:40:48 10° NNW 05:44:24 65° ENE 05:47:37 10° SSE
COSMO-SKYMED 1 3.6 05:40:51 10° SSE 05:45:02 50° ENE 05:49:15 10° N
Meteor 2-4 Rocket 4.0 05:40:01 10° SSW 05:45:39 52° WNW 05:51:26 10° N
Cosmos 2237 Rocket 2.9 05:44:18 10° NW 05:49:08 30° WSW 05:53:55 10° SSW
Cosmos 1666 3.3 05:46:23 10° NNW 05:49:55 34° W 05:53:25 10° SSW
RESURS DK-1 2.8 05:46:43 12° SW 05:50:17 41° WNW 05:54:13 10° NNE
Cosmos 292 Rocket 4.0 05:46:02 10° NNW 05:50:44 50° WSW 05:55:25 10° S
Cosmos 2150 Rocket 3.9 05:46:35 10° SSW 05:51:45 86° WNW 05:56:55 10° NNE
Okean O Rocket 3.3 05:49:39 10° NNW 05:52:19 16° WNW 05:54:08 13° W
Cosmos 2098 Rocket 2.8 05:50:04 10° NNW 05:53:42 75° W 05:58:17 10° S
Tiangong 1 1.0 05:54:38 14° WSW 05:57:05 75° S 06:00:08 10° E
Cosmos 2061 Rocket 4.2 05:51:06 10° NNW 05:57:08 50° W 06:03:12 10° SSW
Meteor 2-15 4.4 05:52:25 10° SSW 05:58:28 74° W 06:04:33 10° N
Cosmos 1025 Rocket 4.4 05:59:41 10° WSW 06:02:53 20° WNW 06:06:06 10° NNW
ATLAS 5 CENTAUR R/B 3.1 05:58:24 10° NW 06:03:49 34° WSW 06:09:32 10° S
Cosmos 1802 Rocket 4.2 05:58:26 10° NNW 06:04:21 48° W 06:10:11 10° SSW
BREEZE M DEB (TANK) 4.1 06:01:33 10° WNW 06:05:09 47° N 06:16:56 10° ENE
DELTA 2 R/B (1) 4.3 06:00:29 10° SW 06:05:49 48° SSE 06:11:10 10° E
Cosmos 2100 Rocket 4.5 06:01:00 10° NNW 06:06:37 37° W 06:12:18 10° SSW
CZ-4B R/B 3.9 06:03:02 10° N 06:06:58 53° WNW 06:10:41 10° SSW
Ariane Rocket 3.5 06:01:58 10° NNE 06:07:05 69° ESE 06:12:09 10° S
Cosmos 1346 Rocket 3.9 06:03:56 10° SW 06:07:11 25° WNW 06:10:30 10° NNW
Cosmos 1626 Rocket 3.5 06:02:51 10° S 06:07:14 80° W 06:11:38 10° N
SL-16 R/B 2.4 06:01:58 10° NW 06:07:26 49° WSW 06:12:51 10° S
Cosmos 1340 4.4 06:04:46 10° SSE 06:08:17 38° E 06:11:50 10° NNE
Cosmos 990 Rocket 4.2 06:05:43 10° SSW 06:10:58 82° ESE 06:16:15 10° NNE
USA 129 3.4 06:11:00 10° SW 06:12:16 15° W 06:13:31 10° WNW
Meteor 2-15 Rocket 4.5 06:11:06 10° SSW 06:17:06 62° W 06:23:08 10° N
